Location: Home
(42.5358°N, 72.7383°W)
Time: 04:46:34
(UTC-04:00)

ISS - Visible Passes

Search period start: 23 September 2023 00:00
Search period end: 03 October 2023 00:00
Orbit: 414 x 422 km, 51.6° (Epoch: 23 September)

Date Brightness Start Highest point End Pass type
(mag) Time Alt. Az. Time Alt. Az. Time Alt. Az.
23 Sep -1.4 19:28:35 10° NW 19:30:56 17° N 19:33:18 10° NE visible
23 Sep -1.2 21:05:52 10° NW 21:07:22 18° NNW 21:07:22 18° NNW visible
24 Sep -1.7 20:17:54 10° NW 20:20:22 19° N 20:21:08 18° NNE visible
25 Sep -1.5 19:29:48 10° NW 19:32:07 17° N 19:34:27 10° NE visible
25 Sep -1.3 21:06:28 10° NW 21:07:49 20° NNW 21:07:49 20° NNW visible
26 Sep -2.3 20:18:30 10° NW 20:21:24 27° NNE 20:21:34 27° NNE visible
27 Sep -2.0 19:30:28 10° NW 19:33:09 22° NNE 19:35:20 13° ENE visible
27 Sep -1.2 21:06:57 10° NW 21:08:15 22° NW 21:08:15 22° NW visible
28 Sep -3.3 20:18:53 10° NW 20:22:01 50° NNE 20:22:01 50° NNE visible
29 Sep -2.8 19:30:49 10° NW 19:33:56 35° NNE 19:35:50 19° E visible
29 Sep -1.0 21:07:35 10° WNW 21:08:45 19° W 21:08:45 19° W visible
30 Sep -3.6 20:19:17 10° WNW 20:22:35 63° SW 20:22:36 63° SW visible
01 Oct -3.8 19:31:03 10° NW 19:34:24 77° NNE 19:36:32 21° ESE visible
01 Oct -0.6 21:09:02 10° W 21:09:27 11° WSW 21:09:27 11° WSW visible
02 Oct -1.8 20:20:01 10° W 20:22:42 23° SW 20:23:28 21° SSW visible
